Regional Weather Roundup
Issued by NWS

Home | Current Version | Previous Version | Graphics & Text | Print | Product List | Glossary Off
Versions: 1 2 3 4 5 6 7 8 9 10 11 12 13 14 15 16 17 18 19 20 21 22 23 24 25 26 27 28 29 30 31 32 33 34 35 36 37 38 39 40 41 42 43 44 45 46 47 48 49 50

000
ASUS43 KTOP 200808
RWRKS

WEATHER ROUNDUP FOR KANSAS
NATIONAL WEATHER SERVICE GOODLAND KS
300 AM CDT FRI APR 20 2018

NOTE:  "FAIR" INDICATES FEW OR NO CLOUDS BELOW 12,000 FEET WITH NO
SIGNIFICANT WEATHER AND/OR OBSTRUCTIONS TO VISIBILITY.

KSZ001>006-013>018-027>032-041>047-200900-
NORTHWEST KANSAS

CITY           SKY/WX    TMP DP  RH WIND       PRES   REMARKS
GOODLAND       CLOUDY    40  27  59 SE14      30.15F WCI  32
HAYS           CLOUDY    39  27  62 SE9       30.29F
HILL CITY      CLOUDY    36  27  69 E7        30.28F
RUSSELL        CLOUDY    37  28  70 SE8       30.30F
$$

KSZ061>065-074>080-084>089-200900-
SOUTHWEST KANSAS

CITY           SKY/WX    TMP DP  RH WIND       PRES   REMARKS
DODGE CITY     CLOUDY    44  27  51 SE16      30.25F
ELKHART        MOCLDY    50  32  50 S22G28    30.16S
GARDEN CITY    CLOUDY    46  28  49 SE20      30.21F
GREAT BEND     CLOUDY    38  28  67 E7        30.30F
LIBERAL        CLOUDY    46  28  49 SE17      30.22S
PRATT          CLOUDY    40  25  54 E6        30.30F
$$

KSZ066>073-081>083-090>101-200900-
SOUTHEAST KANSAS

CITY           SKY/WX    TMP DP  RH WIND       PRES   REMARKS
CHANUTE        CLEAR     43  31  62 E6        30.37F
COFFEYVILLE    CLOUDY    40  33  76 E8        30.34F
HUTCHINSON     CLOUDY    39  29  67 E8        30.33F
MEDICINE LODGE   N/A     43  28  55 E5        30.30F
NEWTON         CLOUDY    39  29  67 E7        30.35S
PARSONS        PTCLDY    41  33  73 CALM      30.36F
WICHITA INTL   CLOUDY    43  31  62 E3        30.33F
WICHITA JABRA  CLOUDY    37  29  72 E3        30.34R
WICHITA MCCONL CLOUDY    42  29  59 SE6       30.33S
WINFIELD       CLEAR     42  31  64 E6        30.34R
$$

KSZ007>012-019>026-033>040-048>060-102>105-200900-
NORTHEAST KANSAS

CITY           SKY/WX    TMP DP  RH WIND       PRES   REMARKS
CONCORDIA      CLOUDY    35  26  69 E3        30.35F
EMPORIA        CLOUDY    36  28  73 E6        30.37S
LAWRENCE       CLEAR     33  27  78 CALM      30.40F
MANHATTAN      MOCLDY    38  29  70 CALM      30.37F
MARYSVILLE     CLOUDY    37  30  75 SE9       30.38S
OLATHE IND     CLEAR     41  29  62 E5        30.41S
OLATHE EXE     CLEAR     42  29  59 E5        30.40S
SALINA         CLOUDY    40  29  64 SE5       30.35F
TOPEKA BILLARD CLOUDY    37  31  78 CALM      30.39F
TOPEKA FORBES  PTCLDY    39  30  70 SE7       30.38F
$$




USA.gov is the U.S. government's official web portal to all federal, state and local government web resources and services.